FENGYUN 1C DEB

Satellite information

Favourite Embed

Satellite Type and Status

DEBRISIN ORBIT

Key statistics

Satellite FENGYUN 1C DEB at a glance.

Uptime

9666

Days in orbit

Revolutions

≈ 14.5

Per day

Orbit

SSO

Sun Synchronous Orbit

Inclination

101.8

Latest

Satellite identification and parameters

Extended collection of information and parameters for FENGYUN 1C DEB.

Object identification

Identified? True

Debris? True

Object name: FENGYUN 1C DEB

International designator: 1999-025BVY

Object number (NORAD): 31484

Object ID (CCSDS): 31484

Country: PEOPLES REPUBLIC OF CHINA (PRC)

Current information (Y/N): Y

RCS size: SMALL

Orbital parameters

Period: 99.485 minutes

Inclination: 101.8014 deg

SMA: 7112.109 km

Apoapsis: 795.345 km

Periapsis: 672.603 km

RAAN: 215.2165 deg

Eccentricy: 0.00862911

Argument of periapsis: 286.922 deg

Mean anomaly: 72.2514 deg

Mean motion: 14.47455252 rev/day

Mean motion (dot): 0.00031789 rev/day2

B* drag term: 0.008241905 1/REarth

Two-line elements (TLE)

Creation date: Oct. 25, 2025, 10:45 a.m.

Reference frame: TEME

Reference center: EARTH

Epoch: Oct. 25, 2025, 12:48 a.m. UTC

TLE line 0: 0 FENGYUN 1C DEB

TLE line 1: 1 31484U 99025BVY 25298.03386296 .00031789 00000-0 82419-2 0 9992

TLE line 2: 2 31484 101.8014 215.2165 0086291 286.9220 72.2514 14.47455252635323

Live tracking on map

Real-time ground track for satellite FENGYUN 1C DEB.

In-orbit conjunctions

A list of the most updated potential collisions computed for object FENGYUN 1C DEB.

Target Orbit TCA Probability of collision Miss distance Type
CZ-6A DEB LEO 2024-12-12 20:14:50 0.0001475614 719.0 (m) DEBRIS

Associated space launch

Chinese polar orbiting meteorological satellite

FENGYUN 1C DEB was lifted into orbit during the mission ‘Long March 4B | Feng Yun 1C’, on board a Long March 4B space rocket.

The launch took place on May 10, 1999, 1:33 a.m. from Launch Complex 7.

For more information about the launch, click the button.

Launch to space Long March 4B | Feng Yun 1C
Long March 4B | Feng Yun 1C

Agency: N/A

Status: Launch Successful

Launch date: May 10, 1999, 1:33 a.m. UTC

Rocket: Long March 4B

Launch pad: Launch Complex 7

Location: Taiyuan Satellite Launch Center, People's Republic of China

...

Latest news about this satellite

There are no fresh news available about this satellite. Check back as we update our databases every day.


Newsletter sign-up

Weekly statistics, charts and insights to help you stay on top of the space industry.